Time,TemperatureF,DewpointF,PressureIn,WindDirection,WindDirectionDegrees,WindSpeedMPH,WindSpeedGustMPH,Humidity,HourlyPrecipIn,Conditions,Clouds,dailyrainin,SoftwareType,DateUTC
2013-03-01 00:13:00,32.4,32.2,30.01,NW,315,4.7,-999.0,99,-99.99,,,0.00,Acu-Link.com,2013-03-01 06:13:00,
2013-03-01 00:28:00,32.4,32.2,30.01,NW,315,3.2,-999.0,99,-99.99,,,0.00,Acu-Link.com,2013-03-01 06:28:00,
2013-03-01 00:43:00,32.4,32.2,30.01,WNW,292,1.7,-999.0,99,-99.99,,,0.00,Acu-Link.com,2013-03-01 06:43:00,
2013-03-01 00:58:00,32.4,32.2,30.01,NNW,337,3.7,-999.0,99,-99.99,,,0.00,Acu-Link.com,2013-03-01 06:58:00,
2013-03-01 01:14:00,32.2,32.0,30.01,NW,315,4.7,-999.0,99,-99.99,,,0.00,Acu-Link.com,2013-03-01 07:14:00,
2013-03-01 01:29:00,32.2,32.0,30.01,NW,315,2.7,-999.0,99,-99.99,,,0.00,Acu-Link.com,2013-03-01 07:29:00,
2013-03-01 01:44:00,32.2,32.0,30.00,West,270,3.2,-999.0,99,-99.99,,,0.00,Acu-Link.com,2013-03-01 07:44:00,
2013-03-01 01:59:00,32.2,32.0,30.01,NNW,337,2.7,-999.0,99,-99.99,,,0.00,Acu-Link.com,2013-03-01 07:59:00,
2013-03-01 02:14:00,32.2,32.0,30.01,West,270,2.2,-999.0,99,-99.99,,,0.00,Acu-Link.com,2013-03-01 08:14:00,
2013-03-01 02:29:00,32.2,32.0,30.00,West,270,2.7,-999.0,99,-99.99,,,0.00,Acu-Link.com,2013-03-01 08:29:00,
2013-03-01 02:45:00,32.2,32.0,30.00,NNW,337,2.2,-999.0,99,-99.99,,,0.00,Acu-Link.com,2013-03-01 08:45:00,
2013-03-01 03:00:00,32.4,32.2,30.00,NW,315,3.2,-999.0,99,-99.99,,,0.00,Acu-Link.com,2013-03-01 09:00:00,
2013-03-01 03:19:00,32.4,32.2,30.00,WNW,292,1.7,-999.0,99,-99.99,,,0.00,Acu-Link.com,2013-03-01 09:19:00,
2013-03-01 03:34:00,32.2,32.0,30.00,WNW,292,1.7,-999.0,99,-99.99,,,0.00,Acu-Link.com,2013-03-01 09:34:00,
2013-03-01 03:50:00,32.2,32.0,30.00,West,270,2.7,-999.0,99,-99.99,,,0.00,Acu-Link.com,2013-03-01 09:50:00,
2013-03-01 04:05:00,32.2,32.0,30.00,NW,315,2.2,-999.0,99,-99.99,,,0.00,Acu-Link.com,2013-03-01 10:05:00,
2013-03-01 04:20:00,32.4,32.2,29.99,NW,315,3.7,-999.0,99,-99.99,,,0.00,Acu-Link.com,2013-03-01 10:20:00,
2013-03-01 04:35:00,32.2,32.0,29.99,NW,315,2.7,-999.0,99,-99.99,,,0.00,Acu-Link.com,2013-03-01 10:35:00,
2013-03-01 04:50:00,32.2,32.0,30.00,WNW,292,2.2,-999.0,99,-99.99,,,0.00,Acu-Link.com,2013-03-01 10:50:00,
2013-03-01 05:05:00,32.2,32.0,30.00,NW,315,3.2,-999.0,99,-99.99,,,0.00,Acu-Link.com,2013-03-01 11:05:00,
2013-03-01 05:20:00,32.0,31.8,29.99,NW,315,2.7,-999.0,99,-99.99,,,0.00,Acu-Link.com,2013-03-01 11:20:00,
2013-03-01 05:35:00,32.0,31.8,30.00,NNW,337,2.2,-999.0,99,-99.99,,,0.00,Acu-Link.com,2013-03-01 11:35:00,
2013-03-01 05:50:00,32.0,31.8,30.00,SW,225,2.7,-999.0,99,-99.99,,,0.00,Acu-Link.com,2013-03-01 11:50:00,
2013-03-01 06:06:00,32.0,31.8,30.00,NW,315,3.2,-999.0,99,-99.99,,,0.00,Acu-Link.com,2013-03-01 12:06:00,
2013-03-01 06:21:00,32.4,32.2,30.01,West,270,1.1,-999.0,99,-99.99,,,0.00,Acu-Link.com,2013-03-01 12:21:00,
2013-03-01 06:36:00,32.2,32.0,30.00,NW,315,2.7,-999.0,99,-99.99,,,0.00,Acu-Link.com,2013-03-01 12:36:00,
2013-03-01 06:51:00,32.2,32.0,30.01,West,270,2.2,-999.0,99,-99.99,,,0.00,Acu-Link.com,2013-03-01 12:51:00,
2013-03-01 07:06:00,32.2,32.0,30.02,NW,315,2.2,-999.0,99,-99.99,,,0.00,Acu-Link.com,2013-03-01 13:06:00,
2013-03-01 07:21:00,32.4,32.2,30.02,NW,315,2.2,-999.0,99,-99.99,,,0.00,Acu-Link.com,2013-03-01 13:21:00,
2013-03-01 07:36:00,32.9,32.7,30.02,WNW,292,1.7,-999.0,99,-99.99,,,0.00,Acu-Link.com,2013-03-01 13:36:00,
2013-03-01 07:51:00,32.9,32.7,30.03,NW,315,3.7,-999.0,99,-99.99,,,0.00,Acu-Link.com,2013-03-01 13:51:00,
2013-03-01 08:06:00,33.1,32.8,30.03,NW,315,3.7,-999.0,99,-99.99,,,0.00,Acu-Link.com,2013-03-01 14:06:00,
2013-03-01 08:22:00,33.4,33.1,30.03,NNE,22,2.7,-999.0,99,-99.99,,,0.00,Acu-Link.com,2013-03-01 14:22:00,
2013-03-01 08:37:00,33.3,33.0,30.03,West,270,3.2,-999.0,99,-99.99,,,0.00,Acu-Link.com,2013-03-01 14:37:00,
2013-03-01 08:52:00,33.6,33.3,30.03,WNW,292,3.7,-999.0,99,-99.99,,,0.00,Acu-Link.com,2013-03-01 14:52:00,
2013-03-01 09:07:00,33.6,33.3,30.04,NW,315,3.2,-999.0,99,-99.99,,,0.00,Acu-Link.com,2013-03-01 15:07:00,
2013-03-01 09:22:00,34.0,33.7,30.04,NW,315,4.2,-999.0,99,-99.99,,,0.00,Acu-Link.com,2013-03-01 15:22:00,
2013-03-01 09:37:00,33.8,33.5,30.04,WNW,292,4.7,-999.0,99,-99.99,,,0.00,Acu-Link.com,2013-03-01 15:37:00,
2013-03-01 09:52:00,34.0,33.7,30.04,North,0,3.7,-999.0,99,-99.99,,,0.00,Acu-Link.com,2013-03-01 15:52:00,
2013-03-01 10:07:00,34.3,34.0,30.04,NW,315,5.3,-999.0,99,-99.99,,,0.00,Acu-Link.com,2013-03-01 16:07:00,
2013-03-01 10:22:00,34.5,34.2,30.04,West,270,3.2,-999.0,99,-99.99,,,0.00,Acu-Link.com,2013-03-01 16:22:00,
2013-03-01 10:38:00,34.5,34.2,30.04,NW,315,6.8,-999.0,99,-99.99,,,0.00,Acu-Link.com,2013-03-01 16:38:00,
2013-03-01 10:53:00,34.7,34.4,30.04,NNW,337,4.7,-999.0,99,-99.99,,,0.00,Acu-Link.com,2013-03-01 16:53:00,
2013-03-01 11:08:00,34.9,34.6,30.05,WNW,292,8.9,-999.0,99,-99.99,,,0.00,Acu-Link.com,2013-03-01 17:08:00,
2013-03-01 11:23:00,35.4,35.1,30.04,NW,315,9.4,-999.0,99,-99.99,,,0.00,Acu-Link.com,2013-03-01 17:23:00,
2013-03-01 11:38:00,35.6,35.3,30.04,NW,315,4.2,-999.0,99,-99.99,,,0.00,Acu-Link.com,2013-03-01 17:38:00,
2013-03-01 11:53:00,35.2,34.9,30.04,WNW,292,5.8,-999.0,99,-99.99,,,0.00,Acu-Link.com,2013-03-01 17:53:00,
2013-03-01 12:08:00,35.8,35.5,30.04,WNW,292,6.8,-999.0,99,-99.99,,,0.00,Acu-Link.com,2013-03-01 18:08:00,
2013-03-01 12:23:00,36.0,35.7,30.04,NW,315,7.3,-999.0,99,-99.99,,,0.00,Acu-Link.com,2013-03-01 18:23:00,
2013-03-01 12:38:00,36.0,35.7,30.03,WNW,292,8.3,-999.0,99,-99.99,,,0.00,Acu-Link.com,2013-03-01 18:38:00,
2013-03-01 12:54:00,36.1,35.8,30.02,WNW,292,5.8,-999.0,99,-99.99,,,0.00,Acu-Link.com,2013-03-01 18:54:00,
2013-03-01 13:09:00,36.9,36.6,30.02,NW,315,3.7,-999.0,99,-99.99,,,0.00,Acu-Link.com,2013-03-01 19:09:00,
2013-03-01 13:24:00,37.0,36.7,30.02,WNW,292,5.8,-999.0,99,-99.99,,,0.00,Acu-Link.com,2013-03-01 19:24:00,
2013-03-01 13:39:00,36.1,35.8,30.01,WNW,292,4.7,-999.0,99,-99.99,,,0.00,Acu-Link.com,2013-03-01 19:39:00,
2013-03-01 13:54:00,36.1,35.8,30.01,WNW,292,3.7,-999.0,99,-99.99,,,0.00,Acu-Link.com,2013-03-01 19:54:00,
2013-03-01 14:09:00,36.7,36.4,30.01,WSW,247,5.8,-999.0,99,-99.99,,,0.00,Acu-Link.com,2013-03-01 20:09:00,
2013-03-01 14:24:00,36.0,35.7,30.01,NW,315,4.7,-999.0,99,-99.99,,,0.00,Acu-Link.com,2013-03-01 20:24:00,
2013-03-01 14:39:00,36.1,35.8,30.01,WNW,292,7.3,-999.0,99,-99.99,,,0.00,Acu-Link.com,2013-03-01 20:39:00,
2013-03-01 14:54:00,36.3,36.0,30.01,NW,315,5.3,-999.0,99,-99.99,,,0.00,Acu-Link.com,2013-03-01 20:54:00,
2013-03-01 15:10:00,36.9,36.6,30.02,WSW,247,5.8,-999.0,99,-99.99,,,0.00,Acu-Link.com,2013-03-01 21:10:00,
2013-03-01 15:25:00,36.5,36.2,30.01,NNW,337,5.8,-999.0,99,-99.99,,,0.00,Acu-Link.com,2013-03-01 21:25:00,
2013-03-01 15:40:00,36.5,36.2,30.02,NW,315,6.8,-999.0,99,-99.99,,,0.00,Acu-Link.com,2013-03-01 21:40:00,
2013-03-01 15:55:00,36.3,36.0,30.02,NW,315,4.7,-999.0,99,-99.99,,,0.00,Acu-Link.com,2013-03-01 21:55:00,
2013-03-01 16:10:00,35.4,35.1,30.02,NW,315,6.3,-999.0,99,-99.99,,,0.00,Acu-Link.com,2013-03-01 22:10:00,
2013-03-01 16:25:00,33.3,33.0,30.03,NW,315,4.7,-999.0,99,-99.99,,,0.00,Acu-Link.com,2013-03-01 22:25:00,
2013-03-01 16:40:00,33.1,32.8,30.03,West,270,6.3,-999.0,99,-99.99,,,0.00,Acu-Link.com,2013-03-01 22:40:00,
2013-03-01 16:55:00,33.3,33.0,30.03,WNW,292,7.8,-999.0,99,-99.99,,,0.00,Acu-Link.com,2013-03-01 22:55:00,
2013-03-01 17:10:00,32.9,32.7,30.03,North,0,3.7,-999.0,99,-99.99,,,0.00,Acu-Link.com,2013-03-01 23:10:00,
2013-03-01 17:26:00,32.7,32.5,30.03,NNW,337,4.2,-999.0,99,-99.99,,,0.00,Acu-Link.com,2013-03-01 23:26:00,
2013-03-01 17:41:00,32.9,32.7,30.04,WNW,292,5.8,-999.0,99,-99.99,,,0.00,Acu-Link.com,2013-03-01 23:41:00,
2013-03-01 17:56:00,32.7,32.5,30.04,NNW,337,5.3,-999.0,99,-99.99,,,0.00,Acu-Link.com,2013-03-01 23:56:00,
2013-03-01 18:11:00,32.5,32.3,30.05,NW,315,7.3,-999.0,99,-99.99,,,0.00,Acu-Link.com,2013-03-02 00:11:00,
2013-03-01 18:26:00,32.4,32.2,30.05,NNW,337,7.8,-999.0,99,-99.99,,,0.00,Acu-Link.com,2013-03-02 00:26:00,
2013-03-01 18:41:00,32.4,32.2,30.05,NE,45,6.3,-999.0,99,-99.99,,,0.00,Acu-Link.com,2013-03-02 00:41:00,
2013-03-01 18:56:00,32.2,32.0,30.06,WNW,292,7.8,-999.0,99,-99.99,,,0.00,Acu-Link.com,2013-03-02 00:56:00,
2013-03-01 19:11:00,32.2,32.0,30.06,NNW,337,7.8,-999.0,99,-99.99,,,0.00,Acu-Link.com,2013-03-02 01:11:00,
2013-03-01 19:26:00,32.0,31.8,30.06,NW,315,6.8,-999.0,99,-99.99,,,0.00,Acu-Link.com,2013-03-02 01:26:00,
2013-03-01 19:42:00,32.0,31.8,30.07,NNW,337,3.7,-999.0,99,-99.99,,,0.00,Acu-Link.com,2013-03-02 01:42:00,
2013-03-01 19:57:00,31.5,31.3,30.07,NW,315,6.3,-999.0,99,-99.99,,,0.00,Acu-Link.com,2013-03-02 01:57:00,
2013-03-01 20:12:00,31.5,31.3,30.07,WNW,292,4.7,-999.0,99,-99.99,,,0.00,Acu-Link.com,2013-03-02 02:12:00,
2013-03-01 20:27:00,31.5,31.3,30.07,NNW,337,6.8,-999.0,99,-99.99,,,0.00,Acu-Link.com,2013-03-02 02:27:00,
2013-03-01 20:42:00,31.3,31.1,30.07,NNW,337,4.2,-999.0,99,-99.99,,,0.00,Acu-Link.com,2013-03-02 02:42:00,
2013-03-01 20:57:00,31.1,30.9,30.07,NNW,337,6.8,-999.0,99,-99.99,,,0.00,Acu-Link.com,2013-03-02 02:57:00,
2013-03-01 21:12:00,30.9,30.7,30.07,NW,315,5.8,-999.0,99,-99.99,,,0.00,Acu-Link.com,2013-03-02 03:12:00,
2013-03-01 21:27:00,30.9,30.7,30.07,North,0,5.3,-999.0,99,-99.99,,,0.00,Acu-Link.com,2013-03-02 03:27:00,
2013-03-01 21:43:00,31.1,30.9,30.08,WNW,292,5.8,-999.0,99,-99.99,,,0.00,Acu-Link.com,2013-03-02 03:43:00,
2013-03-01 21:58:00,30.9,30.7,30.07,WNW,292,8.9,-999.0,99,-99.99,,,0.00,Acu-Link.com,2013-03-02 03:58:00,
2013-03-01 22:13:00,30.9,30.7,30.07,NW,315,5.8,-999.0,99,-99.99,,,0.00,Acu-Link.com,2013-03-02 04:13:00,
2013-03-01 22:28:00,30.9,30.7,30.07,NW,315,4.7,-999.0,99,-99.99,,,0.00,Acu-Link.com,2013-03-02 04:28:00,
2013-03-01 22:43:00,30.7,30.5,30.07,NNW,337,5.8,-999.0,99,-99.99,,,0.00,Acu-Link.com,2013-03-02 04:43:00,
2013-03-01 22:58:00,30.7,30.5,30.07,NW,315,5.3,-999.0,99,-99.99,,,0.00,Acu-Link.com,2013-03-02 04:58:00,
2013-03-01 23:13:00,30.6,30.4,30.07,NNW,337,7.8,-999.0,99,-99.99,,,0.00,Acu-Link.com,2013-03-02 05:13:00,
2013-03-01 23:28:00,30.4,30.2,30.07,WNW,292,6.8,-999.0,99,-99.99,,,0.00,Acu-Link.com,2013-03-02 05:28:00,
2013-03-01 23:43:00,30.6,30.4,30.06,NW,315,5.8,-999.0,99,-99.99,,,0.00,Acu-Link.com,2013-03-02 05:43:00,
2013-03-01 23:59:00,30.4,30.2,30.07,WNW,292,5.3,-999.0,99,-99.99,,,0.00,Acu-Link.com,2013-03-02 05:59:00,